Regional Weather Roundup
Issued by NWS

Home | Current Version | Previous Version | Graphics & Text | Print | Product List | Glossary On
Versions: 1 2 3 4 5 6 7 8 9 10 11 12 13 14 15 16 17 18 19 20 21 22 23 24 25 26 27 28 29 30 31 32 33 34 35 36 37 38 39 40 41 42 43 44 45 46 47 48 49 50
000
ASUS43 KMKX 041321
RWRWI

WISCONSIN REGIONAL WEATHER ROUNDUP
NATIONAL WEATHER SERVICE MILWAUKEE/SULLIVAN WI
800 AM CDT TUE AUG 04 2015

NOTE: "FAIR" INDICATES FEW OR NO CLOUDS BELOW 12,000 FEET WITH NO
SIGNIFICANT WEATHER AND/OR OBSTRUCTIONS TO VISIBILITY.

WIZ001-002-006>008-014>016-023>028-041400-
NORTHWEST WISCONSIN

CITY           SKY/WX    TMP DP  RH WIND       PRES   REMARKS
SUPERIOR ARPT  SUNNY     59  54  84 SW3       29.95R
ASHLAND        SUNNY     60  55  83 VRB3      29.93S
HAYWARD        SUNNY     57  52  83 S3        29.96R
SIREN          SUNNY     58  54  85 NW3       29.98R
CUMBERLAND     SUNNY     57  54  88 W5        29.99R
RICE LAKE      SUNNY     58  54  87 CALM      30.00R
CHETEK         SUNNY     59  55  84 CALM      29.99R
LADYSMITH      SUNNY     59  55  85 CALM      29.98R
EAU CLAIRE     SUNNY     61  54  77 W6        29.99R
MENOMONIE      SUNNY     62  56  80 SW7       30.01R
NEW RICHMOND   SUNNY     60  57  89 SW7       30.02R
OSCEOLA        SUNNY     59  59 100 SW5       30.03R
$$

WIZ003>005-009-010-017-018-041400-
NORTH CENTRAL WISCONSIN

CITY           SKY/WX    TMP DP  RH WIND       PRES   REMARKS
MANITOWISH WTR SUNNY     58  55  89 NW8       29.93R
ARBOR VITAE    SUNNY     60  54  79 NW9       29.93
WOODRUFF       SUNNY     60  54  79 NW9       29.93
RHINELANDER    SUNNY     60  53  77 W8        29.93S
EAGLE RIVER    MOSUNNY   58  55  88 NW7       29.92R
LAND O LAKES   CLOUDY    58  54  88 NW7       29.93R
PHILLIPS       SUNNY     59  54  82 W3        29.95R
TOMAHAWK       SUNNY     58  53  81 NW5       29.95R
MEDFORD        SUNNY     58  54  84 NW5       29.96R
MERRILL        NOT AVBL
$$

WIZ029-030-035-036-043>047-041400-
CENTRAL WISCONSIN

CITY           SKY/WX    TMP DP  RH WIND       PRES   REMARKS
WAUSAU         SUNNY     62  53  72 NW10      29.93R
MOSINEE        SUNNY     61  55  82 NW12      29.96R
MARSHFIELD     SUNNY     63  52  67 NW6       29.96R
STEVENS POINT  SUNNY     62  54  75 W5        29.96R
WAUPACA        SUNNY     66  56  68 NW6       29.94R
WAUTOMA        SUNNY     66  55  67 NW7       29.97R
WISC RAPIDS    SUNNY     63  54  72 W5        29.98R
CAMP DOUGLAS   SUNNY     63  63 100 W7        29.99R
$$

WIZ011>013-019>022-031-037>040-048>050-041400-
NORTHEAST WISCONSIN

CITY           SKY/WX    TMP DP  RH WIND       PRES   REMARKS
ANTIGO         SUNNY     59  54  83 NW7       29.94R
SHAWANO        SUNNY     63  56  80 W6        29.92R
OCONTO         MOSUNNY   62  59  88 NW3       29.90R
STURGEON BAY   CLOUDY    61  54  77 NW5       29.93R
GREEN BAY      SUNNY     65  58  78 NW7       29.92R
MANITOWOC      SUNNY     67  57  70 MISG      29.92R
APPLETON       MOSUNNY   61  54  77 W7        29.93R
CLINTONVILLE   SUNNY     63  54  72 NW9       29.93R
OSHKOSH        SUNNY     64  55  72 W9        29.94R
$$

WIZ032>034-041-042-053>061-041400-
SOUTHWEST WISCONSIN

CITY           SKY/WX    TMP DP  RH WIND       PRES   REMARKS
LA CROSSE      SUNNY     63  56  78 S5        29.99R
SPARTA         SUNNY     58  52  82 CALM      30.00R
VIROQUA        SUNNY     60  57  88 CALM      30.01R
BOSCOBEL       SUNNY     62  56  80 S3        30.00R
PRAIRIE DU CHI SUNNY     61  54  75 CALM      30.01R
PLATTEVILLE    SUNNY     61  58  89 W5        30.00R
$$

WIZ056-057-062-063-064-067-068-041400-
SOUTH CENTRAL WISCONSIN

CITY           SKY/WX    TMP DP  RH WIND       PRES   REMARKS
REEDSBURG      SUNNY     61  54  77 NW5       29.98R
BARABOO/DELLS  SUNNY     63  53  68 NW5       29.98R
LONE ROCK      MOSUNNY   60  56  86 W6        30.00R
MINERAL POINT  SUNNY     63  55  77 NW3       30.00R
MADISON        MOSUNNY   65  55  70 W5        29.97R
MIDDLETON      MOSUNNY   64  56  74 W6        29.98R
WATERTOWN      SUNNY     63  58  83 W3        29.95R
MONROE         SUNNY     64  54  68 W7        29.98R
JANESVILLE     SUNNY     64  55  72 CALM      29.96R
$$

WIZ051-052-058>065-066-070>072-041400-
SOUTHEAST WISCONSIN

CITY           SKY/WX    TMP DP  RH WIND       PRES   REMARKS
MILWAUKEE      MOSUNNY   69  53  56 W7        29.94R
WAUKESHA       SUNNY     64  54  68 W5        29.96R
MILWAUKEE/TIMM SUNNY     66  54  63 W5        29.95R
RACINE         SUNNY     68  54  60 W6        29.96R
BURLINGTON     SUNNY     64  57  78 S3        29.96R
KENOSHA        SUNNY     66  58  75 W6        29.96R
FOND DU LAC    SUNNY     64  56  75 W7        29.94R
SHEBOYGAN      PTSUNNY   62  56  80 W6        29.92R
WEST BEND      SUNNY     64  52  63 W6        29.94R
JUNEAU         SUNNY     60  55  83 W6        29.96R
$$

LSZ147-162-041400-
LAKE SUPERIOR

STATION/POSITION TIME  TEMP    WIND        PRES    WAVE
                       AIR SEA DIR/SP/G            HT/PER
                 (UTC) (F)     (DEG/KT/KT) (MB)    (FT/S)
W MID LAKE BUOY  1250   56 56  310/  6/  6 1012.7R   1
DEVILS ISLAND    1300   57     270/  8/  9 1013.7R
PORT WING        1240   58     210/  4/  6 1013.9R
SAXON HARBOR     1240   62        CALM     1012.9R
$$

LMZ867-665-643>646-041400-
LAKE MICHIGAN

STATION/POSITION TIME  TEMP    WIND        PRES    WAVE
                       AIR SEA DIR/SP/G            HT/PER
                 (UTC) (F)     (DEG/KT/KT) (MB)    (FT/S)
CHAMBERS ISLAND  1200   61     290/  6/  9 1012.2R
S GREEN BAY BUOY 1100   63 71  270/ 10/ 12 1013.3R
N MID LAKE BUOY  1250   62 67  300/ 10/ 12 1011.6R   1/ 4
NORTHPORT PIER   1200   63     300/  7/ 10 1011.9R
SISTER BAY       1218   63     340/ 10/ 11   N/A
ALGOMA LAKESHORE 1212           CALM  /  3   N/A
KEWAUNEE LAKESHO 1200   60     310/  4/  4 1011.8R
SHEBOYGAN LAKESH 1300   64     260/  9/ 10 1013.2R
PORT WASHINGTON  1200   66     280/  6/  9 1013.9R
ATWATER BUOY     1300   63 54  280/  8/ 10 1015.1R
MILWAUKEE LAKESH 1300   69     270/  8/ 11   N/A
KENOSHA   LAKESH 1300   69     260/  7/ 11 1014.2R
$$

TC  - TEMPERATURE IN CELSIUS
VSB - VISIBILITY IN STATUTE MILES
WCI - WIND CHILL INDEX
HX  - HEAT INDEX



USA.gov is the U.S. government's official web portal to all federal, state and local government web resources and services.